| time (UTC) | temp C | wind direction | speed KPH | gust KPH | rain 1hr cm | rain 24hr cm | rain mn cm | humidity % | barometer mb |
| 20260507065059 | 19 | 225 | 4.8 | 46.7 | 0.00 | 0.00 | 0.00 | 47 | 1014.6 |
| 20260507064556 | 19 | 180 | 37.0 | 38.6 | 0.00 | 0.00 | 0.00 | 48 | 1014.6 |
| 20260507064054 | 18 | 225 | 17.7 | 51.5 | 0.00 | 0.00 | 0.00 | 48 | 1014.6 |
| 20260507063552 | 18 | 225 | 8.0 | 67.6 | 0.00 | 0.00 | 0.00 | 48 | 1014.5 |
| 20260507063049 | 18 | 180 | 3.2 | 38.6 | 0.00 | 0.00 | 0.00 | 48 | 1014.5 |
| 20260507062547 | 18 | 180 | 1.6 | 37.0 | 0.00 | 0.00 | 0.00 | 49 | 1014.5 |
| 20260507062044 | 17 | 180 | 3.2 | 46.7 | 0.00 | 0.00 | 0.00 | 49 | 1014.3 |
| 20260507061542 | 17 | 225 | 3.2 | 41.8 | 0.00 | 0.00 | 0.00 | 49 | 1014.3 |
| 20260507061039 | 17 | 180 | 8.0 | 46.7 | 0.00 | 0.00 | 0.00 | 49 | 1014.2 |
| 20260507060537 | 17 | 225 | 1.6 | 38.6 | 0.00 | 0.00 | 0.00 | 49 | 1014.3 |
| 20260507060035 | 17 | 225 | 27.4 | 74.0 | 0.00 | 0.00 | 0.00 | 49 | 1014.3 |
| 20260507055532 | 17 | 180 | 3.2 | 29.0 | 0.00 | 0.00 | 0.00 | 49 | 1014.3 |
| 20260507055030 | 17 | 225 | 1.6 | 38.6 | 0.00 | 0.00 | 0.00 | 49 | 1014.2 |
| 20260507054527 | 17 | 180 | 1.6 | 17.7 | 0.00 | 0.00 | 0.00 | 49 | 1014.2 |
| 20260507054025 | 17 | 180 | 0.0 | 41.8 | 0.00 | 0.00 | 0.00 | 50 | 1014.1 |
| 20260507053523 | 17 | 180 | 3.2 | 37.0 | 0.00 | 0.00 | 0.00 | 50 | 1014.0 |
| 20260507053020 | 17 | 225 | 3.2 | 70.8 | 0.00 | 0.00 | 0.00 | 50 | 1013.9 |
| 20260507052518 | 17 | 180 | 1.6 | 43.5 | 0.00 | 0.00 | 0.00 | 50 | 1013.9 |
| 20260507052015 | 17 | 225 | 4.8 | 41.8 | 0.00 | 0.00 | 0.00 | 50 | 1013.8 |
| 20260507051513 | 17 | 225 | 27.4 | 40.2 | 0.00 | 0.00 | 0.00 | 50 | 1013.9 |
| 20260507051010 | 17 | 180 | 3.2 | 40.2 | 0.00 | 0.00 | 0.00 | 50 | 1013.9 |
| 20260507050508 | 17 | 225 | 1.6 | 35.4 | 0.00 | 0.00 | 0.00 | 50 | 1013.8 |
| 20260507050006 | 17 | 315 | 0.0 | 43.5 | 0.00 | 0.00 | 0.00 | 50 | 1013.8 |
| 20260507045503 | 17 | 180 | 0.0 | 1.6 | 0.00 | 0.00 | 0.00 | 50 | 1013.8 |
| 20260507045001 | 16 | 180 | 0.0 | 37.0 | 0.00 | 0.00 | 0.00 | 50 | 1013.8 |
| 20260507044458 | 16 | 315 | 0.0 | 38.6 | 0.00 | 0.00 | 0.00 | 50 | 1013.6 |
| 20260507043956 | 16 | 180 | 0.0 | 41.8 | 0.00 | 0.00 | 0.00 | 50 | 1013.6 |
| 20260507043454 | 16 | 225 | 1.6 | 37.0 | 0.00 | 0.00 | 0.00 | 50 | 1013.7 |
| 20260507042951 | 16 | 315 | 0.0 | 3.2 | 0.00 | 0.00 | 0.00 | 50 | 1013.6 |
| 20260507042449 | 16 | 180 | 0.0 | 17.7 | 0.00 | 0.00 | 0.00 | 50 | 1013.5 |
| 20260507041946 | 16 | 180 | 0.0 | 46.7 | 0.00 | 0.00 | 0.00 | 50 | 1013.5 |
| 20260507041444 | 16 | 180 | 0.0 | 37.0 | 0.00 | 0.00 | 0.00 | 50 | 1013.4 |
| 20260507040942 | 16 | 225 | 3.2 | 40.2 | 0.00 | 0.00 | 0.00 | 50 | 1013.3 |
| 20260507040439 | 16 | 225 | 1.6 | 35.4 | 0.00 | 0.00 | 0.00 | 50 | 1013.2 |
| 20260507035937 | 16 | 225 | 3.2 | 3.2 | 0.00 | 0.00 | 0.00 | 50 | 1013.1 |
| 20260507035434 | 16 | 180 | 0.0 | 3.2 | 0.00 | 0.00 | 0.00 | 50 | 1013.1 |
| 20260507034932 | 16 | 180 | 0.0 | 37.0 | 0.00 | 0.00 | 0.00 | 50 | 1013.1 |
| 20260507034429 | 16 | 180 | 9.7 | 37.0 | 0.00 | 0.00 | 0.00 | 50 | 1013.1 |
| 20260507033927 | 16 | 180 | 0.0 | 30.6 | 0.00 | 0.00 | 0.00 | 50 | 1013.0 |
| 20260507033425 | 16 | 180 | 0.0 | 41.8 | 0.00 | 0.00 | 0.00 | 50 | 1013.0 |
| 20260507032922 | 16 | 135 | 0.0 | 37.0 | 0.00 | 0.00 | 0.00 | 50 | 1012.9 |
| 20260507032420 | 16 | 225 | 1.6 | 53.1 | 0.00 | 0.00 | 0.00 | 50 | 1012.9 |
| 20260507031917 | 16 | 315 | 0.0 | 40.2 | 0.00 | 0.00 | 0.00 | 50 | 1012.8 |
| 20260507031415 | 16 | 225 | 1.6 | 38.6 | 0.00 | 0.00 | 0.00 | 50 | 1012.7 |
| 20260507030913 | 16 | 180 | 1.6 | 27.4 | 0.00 | 0.00 | 0.00 | 50 | 1012.7 |
| 20260507030410 | 16 | 180 | 1.6 | 45.1 | 0.00 | 0.00 | 0.00 | 50 | 1012.7 |
| 20260507025908 | 16 | 225 | 0.0 | 40.2 | 0.00 | 0.00 | 0.00 | 50 | 1012.6 |
| 20260507024903 | 16 | 180 | 0.0 | 46.7 | 0.00 | 0.00 | 0.00 | 50 | 1012.6 |
| 20260507024401 | 16 | 180 | 6.4 | 37.0 | 0.00 | 0.00 | 0.00 | 50 | 1012.5 |
| 20260507023858 | 16 | 225 | 1.6 | 48.3 | 0.00 | 0.00 | 0.00 | 50 | 1012.5 |
| 20260507023356 | 16 | 180 | 6.4 | 45.1 | 0.00 | 0.00 | 0.00 | 50 | 1012.5 |
| 20260507022853 | 16 | 225 | 9.7 | 40.2 | 0.00 | 0.00 | 0.00 | 50 | 1012.5 |
| 20260507022351 | 17 | 225 | 3.2 | 43.5 | 0.00 | 0.00 | 0.00 | 50 | 1012.4 |
| 20260507021848 | 17 | 180 | 4.8 | 46.7 | 0.00 | 0.00 | 0.00 | 50 | 1012.4 |
| 20260507021346 | 17 | 225 | 6.4 | 41.8 | 0.00 | 0.00 | 0.00 | 50 | 1012.4 |
| 20260507020844 | 16 | 225 | 3.2 | 33.8 | 0.00 | 0.00 | 0.00 | 50 | 1012.4 |
| 20260507020341 | 16 | 180 | 1.6 | 41.8 | 0.00 | 0.00 | 0.00 | 50 | 1012.3 |
| 20260507015839 | 16 | 180 | 1.6 | 41.8 | 0.00 | 0.00 | 0.00 | 50 | 1012.3 |
| 20260507015336 | 16 | 225 | 1.6 | 43.5 | 0.00 | 0.00 | 0.00 | 50 | 1012.3 |
| 20260507014834 | 17 | 180 | 1.6 | 45.1 | 0.00 | 0.00 | 0.00 | 51 | 1012.3 |
| 20260507014332 | 17 | 225 | 3.2 | 45.1 | 0.00 | 0.00 | 0.00 | 51 | 1012.2 |
| 20260507013829 | 17 | 180 | 1.6 | 35.4 | 0.00 | 0.00 | 0.00 | 51 | 1012.3 |
| 20260507012824 | 17 | 180 | 0.0 | 49.9 | 0.00 | 0.00 | 0.00 | 51 | 1012.1 |
| 20260507012322 | 17 | 225 | 0.0 | 43.5 | 0.00 | 0.00 | 0.00 | 51 | 1012.1 |
| 20260507011820 | 17 | 225 | 4.8 | 43.5 | 0.00 | 0.00 | 0.00 | 51 | 1012.1 |
| 20260507011317 | 17 | 180 | 1.6 | 37.0 | 0.00 | 0.00 | 0.00 | 51 | 1012.1 |
| 20260507010815 | 17 | 225 | 3.2 | 57.9 | 0.00 | 0.00 | 0.00 | 51 | 1011.9 |
| 20260507010312 | 17 | 225 | 4.8 | 46.7 | 0.00 | 0.00 | 0.00 | 51 | 1011.8 |
| 20260507005810 | 17 | 180 | 1.6 | 38.6 | 0.00 | 0.00 | 0.00 | 51 | 1011.7 |
| 20260507005308 | 17 | 225 | 6.4 | 80.5 | 0.00 | 0.00 | 0.00 | 50 | 1011.5 |
| 20260507004805 | 17 | 225 | 4.8 | 43.5 | 0.00 | 0.00 | 0.00 | 50 | 1011.5 |
| 20260507004303 | 17 | 225 | 11.3 | 51.5 | 0.00 | 0.00 | 0.00 | 50 | 1011.5 |
| 20260507003800 | 17 | 225 | 1.6 | 37.0 | 0.00 | 0.00 | 0.00 | 50 | 1011.6 |
| 20260507003258 | 17 | 225 | 11.3 | 41.8 | 0.00 | 0.00 | 0.00 | 50 | 1011.7 |
| 20260507002755 | 17 | 180 | 4.8 | 41.8 | 0.00 | 0.00 | 0.00 | 50 | 1011.8 |
| 20260507002253 | 17 | 225 | 4.8 | 41.8 | 0.00 | 0.00 | 0.00 | 50 | 1011.9 |
| 20260507001751 | 17 | 225 | 8.0 | 49.9 | 0.00 | 0.00 | 0.00 | 50 | 1011.8 |
| 20260507001248 | 17 | 180 | 3.2 | 43.5 | 0.00 | 0.00 | 0.00 | 50 | 1011.8 |
| 20260507000746 | 17 | 225 | 4.8 | 43.5 | 0.00 | 0.00 | 0.00 | 50 | 1011.8 |
| 20260507000243 | 17 | 180 | 8.0 | 35.4 | 0.00 | 0.00 | 0.00 | 50 | 1011.6 |
| 20260506235741 | 17 | 225 | 6.4 | 43.5 | 0.00 | 0.00 | 0.00 | 50 | 1011.6 |
| 20260506235239 | 17 | 0 | 3.2 | 46.7 | 0.00 | 0.00 | 0.00 | 50 | 1011.3 |
| 20260506234736 | 17 | 225 | 4.8 | 45.1 | 0.00 | 0.00 | 0.00 | 50 | 1011.3 |
| 20260506234234 | 17 | 225 | 3.2 | 43.5 | 0.00 | 0.00 | 0.00 | 50 | 1011.2 |
| 20260506233731 | 17 | 225 | 4.8 | 59.5 | 0.00 | 0.00 | 0.00 | 50 | 1011.1 |
| 20260506233229 | 17 | 180 | 3.2 | 41.8 | 0.00 | 0.00 | 0.00 | 49 | 1010.9 |
| 20260506232726 | 18 | 180 | 3.2 | 51.5 | 0.00 | 0.00 | 0.00 | 49 | 1011.0 |
| 20260506232224 | 18 | 225 | 1.6 | 80.5 | 0.00 | 0.00 | 0.00 | 49 | 1010.9 |
| 20260506231219 | 18 | 180 | 8.0 | 75.6 | 0.00 | 0.00 | 0.00 | 49 | 1010.6 |
| 20260506230717 | 18 | 180 | 14.5 | 66.0 | 0.00 | 0.00 | 0.00 | 49 | 1010.6 |
| 20260506230214 | 18 | 225 | 3.2 | 46.7 | 0.00 | 0.00 | 0.00 | 49 | 1010.6 |
| 20260506225712 | 18 | 225 | 12.9 | 43.5 | 0.00 | 0.00 | 0.00 | 49 | 1010.4 |
| 20260506225210 | 18 | 180 | 6.4 | 86.9 | 0.00 | 0.00 | 0.00 | 48 | 1010.3 |
| 20260506224707 | 18 | 180 | 8.0 | 49.9 | 0.00 | 0.00 | 0.00 | 48 | 1010.3 |
| 20260506224205 | 18 | 180 | 8.0 | 53.1 | 0.00 | 0.00 | 0.00 | 48 | 1010.3 |
| 20260506223702 | 18 | 225 | 4.8 | 66.0 | 0.00 | 0.00 | 0.00 | 47 | 1010.2 |
| 20260506223200 | 18 | 180 | 1.6 | 45.1 | 0.00 | 0.00 | 0.00 | 46 | 1010.2 |
| 20260506222658 | 18 | 180 | 6.4 | 45.1 | 0.00 | 0.00 | 0.00 | 46 | 1009.9 |
| 20260506222155 | 18 | 180 | 6.4 | 45.1 | 0.00 | 0.00 | 0.00 | 45 | 1009.8 |
| 20260506221653 | 18 | 225 | 45.1 | 45.1 | 0.00 | 0.00 | 0.00 | 45 | 1009.9 |
| 20260506221150 | 18 | 180 | 1.6 | 43.5 | 0.00 | 0.00 | 0.00 | 44 | 1009.7 |
| 20260506220648 | 19 | 225 | 1.6 | 64.4 | 0.00 | 0.00 | 0.00 | 43 | 1009.7 |
| 20260506220145 | 19 | 180 | 0.0 | 57.9 | 0.00 | 0.00 | 0.00 | 43 | 1009.5 |
| 20260506215643 | 19 | 225 | 3.2 | 43.5 | 0.00 | 0.00 | 0.00 | 42 | 1009.3 |
| 20260506215141 | 19 | 225 | 4.8 | 53.1 | 0.00 | 0.00 | 0.00 | 42 | 1009.1 |
| 20260506214638 | 20 | 225 | 8.0 | 45.1 | 0.00 | 0.00 | 0.00 | 41 | 1009.0 |
| 20260506214136 | 20 | 180 | 3.2 | 24.1 | 0.00 | 0.00 | 0.00 | 41 | 1009.1 |
| 20260506213633 | 20 | 225 | 9.7 | 40.2 | 0.00 | 0.00 | 0.00 | 40 | 1008.9 |
| 20260506213131 | 20 | 225 | 8.0 | 41.8 | 0.00 | 0.00 | 0.00 | 40 | 1008.8 |
| 20260506212629 | 20 | 225 | 4.8 | 45.1 | 0.00 | 0.00 | 0.00 | 39 | 1008.7 |
| 20260506212126 | 20 | 180 | 3.2 | 78.9 | 0.00 | 0.00 | 0.00 | 39 | 1008.5 |
| 20260506211624 | 20 | 180 | 1.6 | 49.9 | 0.00 | 0.00 | 0.00 | 38 | 1008.4 |
| 20260506211121 | 20 | 225 | 3.2 | 37.0 | 0.00 | 0.00 | 0.00 | 37 | 1008.4 |
| 20260506210619 | 21 | 180 | 6.4 | 46.7 | 0.00 | 0.00 | 0.00 | 37 | 1008.2 |
| 20260506210117 | 21 | 270 | 3.2 | 43.5 | 0.00 | 0.00 | 0.00 | 37 | 1008.0 |
| 20260506205614 | 20 | 0 | 0.0 | 22.5 | 0.00 | 0.00 | 0.00 | 37 | 1007.8 |
| 20260506205112 | 20 | 225 | 0.0 | 12.9 | 0.00 | 0.00 | 0.00 | 36 | 1007.6 |
| 20260506204609 | 20 | 180 | 0.0 | 4.8 | 0.00 | 0.00 | 0.00 | 36 | 1007.4 |
| 20260506204107 | 20 | 180 | 0.0 | 9.7 | 0.00 | 0.00 | 0.00 | 36 | 1007.3 |
| 20260506203605 | 20 | 180 | 0.0 | 0.0 | 0.00 | 0.00 | 0.00 | 35 | 1007.2 |
| 20260506203102 | 20 | 180 | 0.0 | 0.0 | 0.00 | 0.00 | 0.00 | 35 | 1007.0 |
| 20260506202600 | 20 | 180 | 0.0 | 0.0 | 0.00 | 0.00 | 0.00 | 35 | 1006.9 |
| 20260506202057 | 20 | 180 | 0.0 | 1.6 | 0.00 | 0.00 | 0.00 | 34 | 1006.9 |
| 20260506201555 | 21 | 180 | 0.0 | 0.0 | 0.00 | 0.00 | 0.00 | 34 | 1006.8 |
| 20260506201052 | 21 | 180 | 0.0 | 0.0 | 0.00 | 0.00 | 0.00 | 34 | 1006.9 |
| 20260506200550 | 21 | 180 | 0.0 | 0.0 | 0.00 | 0.00 | 0.00 | 33 | 1006.9 |
| 20260506200048 | 21 | 180 | 0.0 | 1.6 | 0.00 | 0.00 | 0.00 | 33 | 1006.7 |
| 20260506195545 | 21 | 180 | 0.0 | 0.0 | 0.00 | 0.00 | 0.00 | 33 | 1006.7 |
| 20260506195043 | 22 | 180 | 0.0 | 0.0 | 0.00 | 0.00 | 0.00 | 33 | 1006.6 |
| 20260506194540 | 22 | 180 | 0.0 | 38.6 | 0.00 | 0.00 | 0.00 | 33 | 1006.6 |
| 20260506194038 | 22 | 225 | 0.0 | 35.4 | 0.00 | 0.00 | 0.00 | 33 | 1006.5 |
| 20260506193536 | 22 | 225 | 0.0 | 1.6 | 0.00 | 0.00 | 0.00 | 32 | 1006.4 |
| 20260506193033 | 22 | 180 | 14.5 | 35.4 | 0.00 | 0.00 | 0.00 | 32 | 1006.3 |
| 20260506192531 | 22 | 180 | 0.0 | 1.6 | 0.00 | 0.00 | 0.00 | 32 | 1006.2 |
| 20260506192028 | 22 | 180 | 0.0 | 1.6 | 0.00 | 0.00 | 0.00 | 32 | 1006.2 |
| 20260506191526 | 22 | 180 | 0.0 | 0.0 | 0.00 | 0.00 | 0.00 | 32 | 1006.1 |
| 20260506191024 | 22 | 180 | 0.0 | 0.0 | 0.00 | 0.00 | 0.00 | 31 | 1006.0 |
| 20260506190521 | 22 | 180 | 0.0 | 1.6 | 0.00 | 0.00 | 0.00 | 31 | 1006.0 |
| 20260506190019 | 22 | 180 | 0.0 | 1.6 | 0.00 | 0.00 | 0.00 | 31 | 1005.9 |
| 20260506185516 | 22 | 180 | 0.0 | 0.0 | 0.00 | 0.00 | 0.00 | 30 | 1005.8 |
| 20260506185014 | 23 | 180 | 0.0 | 0.0 | 0.00 | 0.00 | 0.00 | 30 | 1005.8 |
| 20260506184511 | 23 | 180 | 0.0 | 0.0 | 0.00 | 0.00 | 0.00 | 30 | 1005.7 |
| 20260506184009 | 23 | 180 | 0.0 | 0.0 | 0.00 | 0.00 | 0.00 | 1005.7 | |
| 20260506183507 | 23 | 45 | 0.0 | 38.6 | 0.00 | 0.00 | 0.00 | 30 | 1005.6 |
| 20260506183005 | 23 | 45 | 0.0 | 1.6 | 0.00 | 0.00 | 0.00 | 30 | 1005.6 |
| 20260506182502 | 23 | 180 | 0.0 | 1.6 | 0.00 | 0.00 | 0.00 | 29 | 1005.5 |
| 20260506181959 | 23 | 180 | 0.0 | 38.6 | 0.00 | 0.00 | 0.00 | 29 | 1005.3 |
| 20260506181457 | 23 | 270 | 0.0 | 38.6 | 0.00 | 0.00 | 0.00 | 29 | 1005.3 |
| 20260506180955 | 23 | 270 | 0.0 | 12.9 | 0.00 | 0.00 | 0.00 | 29 | 1005.3 |
| 20260506180452 | 24 | 0 | 0.0 | 37.0 | 0.00 | 0.00 | 0.00 | 28 | 1005.3 |
| 20260506175950 | 24 | 225 | 0.0 | 37.0 | 0.00 | 0.00 | 0.00 | 28 | 1005.3 |
| 20260506175447 | 25 | 270 | 0.0 | 0.0 | 0.00 | 0.00 | 0.00 | 28 | 1005.2 |
| 20260506174945 | 25 | 180 | 0.0 | 3.2 | 0.00 | 0.00 | 0.00 | 27 | 1005.1 |
| 20260506174442 | 25 | 315 | 0.0 | 3.2 | 0.00 | 0.00 | 0.00 | 27 | 1005.1 |
| 20260506173940 | 25 | 180 | 0.0 | 40.2 | 0.00 | 0.00 | 0.00 | 27 | 1005.1 |
| 20260506173438 | 25 | 45 | 0.0 | 29.0 | 0.00 | 0.00 | 0.00 | 27 | 1005.1 |
| 20260506172935 | 25 | 180 | 0.0 | 30.6 | 0.00 | 0.00 | 0.00 | 26 | 1005.2 |
| 20260506172433 | 26 | 180 | 0.0 | 3.2 | 0.00 | 0.00 | 0.00 | 26 | 1005.1 |
| 20260506171930 | 26 | 225 | 0.0 | 19.3 | 0.00 | 0.00 | 0.00 | 26 | 1005.1 |
| 20260506171428 | 26 | 45 | 0.0 | 1.6 | 0.00 | 0.00 | 0.00 | 26 | 1005.1 |
| 20260506170926 | 26 | 180 | 0.0 | 1.6 | 0.00 | 0.00 | 0.00 | 25 | 1005.2 |
| 20260506170423 | 26 | 180 | 0.0 | 1.6 | 0.00 | 0.00 | 0.00 | 25 | 1005.2 |
| 20260506165921 | 26 | 45 | 0.0 | 17.7 | 0.00 | 0.00 | 0.00 | 25 | 1005.2 |
| 20260506165418 | 27 | 225 | 0.0 | 1.6 | 0.00 | 0.00 | 0.00 | 24 | 1005.2 |
| 20260506164916 | 27 | 225 | 0.0 | 9.7 | 0.00 | 0.00 | 0.00 | 24 | 1005.2 |
| 20260506163911 | 27 | 0 | 0.0 | 1.6 | 0.00 | 0.00 | 0.00 | 23 | 1005.2 |
| 20260506163409 | 28 | 225 | 0.0 | 30.6 | 0.00 | 0.00 | 0.00 | 22 | 1005.2 |
| 20260506162906 | 28 | 225 | 0.0 | 30.6 | 0.00 | 0.00 | 0.00 | 22 | 1005.2 |
| 20260506162404 | 29 | 225 | 0.0 | 6.4 | 0.00 | 0.00 | 0.00 | 21 | 1005.2 |
| 20260506161901 | 29 | 180 | 0.0 | 1.6 | 0.00 | 0.00 | 0.00 | 21 | 1005.3 |
| 20260506161359 | 30 | 135 | 0.0 | 1.6 | 0.00 | 0.00 | 0.00 | 21 | 1005.3 |
| 20260506160857 | 30 | 225 | 0.0 | 1.6 | 0.00 | 0.00 | 0.00 | 21 | 1005.4 |
| 20260506160354 | 29 | 225 | 0.0 | 11.3 | 0.00 | 0.00 | 0.00 | 21 | 1005.4 |
| 20260506155852 | 30 | 180 | 1.6 | 24.1 | 0.00 | 0.00 | 0.00 | 20 | 1005.4 |
| 20260506155349 | 30 | 180 | 0.0 | 35.4 | 0.00 | 0.00 | 0.00 | 20 | 1005.5 |
| 20260506154847 | 30 | 180 | 0.0 | 32.2 | 0.00 | 0.00 | 0.00 | 20 | 1005.5 |
| 20260506154344 | 31 | 180 | 0.0 | 30.6 | 0.00 | 0.00 | 0.00 | 20 | 1005.5 |
| 20260506153842 | 32 | 225 | 1.6 | 22.5 | 0.00 | 0.00 | 0.00 | 19 | 1005.5 |
| 20260506153340 | 32 | 225 | 0.0 | 27.4 | 0.00 | 0.00 | 0.00 | 19 | 1005.5 |
| 20260506152837 | 33 | 180 | 0.0 | 25.7 | 0.00 | 0.00 | 0.00 | 19 | 1005.6 |
| 20260506151832 | 35 | 180 | 0.0 | 30.6 | 0.00 | 0.00 | 0.00 | 19 | 1005.7 |
| 20260506151330 | 34 | 180 | 1.6 | 11.3 | 0.00 | 0.00 | 0.00 | 19 | 1005.6 |
| 20260506150828 | 33 | 225 | 1.6 | 25.7 | 0.00 | 0.00 | 0.00 | 19 | 1005.6 |
| 20260506150325 | 33 | 225 | 1.6 | 8.0 | 0.00 | 0.00 | 0.00 | 19 | 1005.7 |
| 20260506145823 | 33 | 180 | 0.0 | 32.2 | 0.00 | 0.00 | 0.00 | 19 | 1005.7 |
| 20260506145321 | 33 | 135 | 0.0 | 29.0 | 0.00 | 0.00 | 0.00 | 18 | 1005.7 |
| 20260506144818 | 34 | 225 | 0.0 | 29.0 | 0.00 | 0.00 | 0.00 | 18 | 1005.8 |
| 20260506144316 | 35 | 180 | 0.0 | 29.0 | 0.00 | 0.00 | 0.00 | 18 | 1005.7 |
| 20260506143311 | 37 | 180 | 1.6 | 27.4 | 0.00 | 0.00 | 0.00 | 17 | 1005.7 |
| 20260506142808 | 35 | 225 | 0.0 | 25.7 | 0.00 | 0.00 | 0.00 | 18 | 1005.7 |
| 20260506142306 | 35 | 180 | 0.0 | 9.7 | 0.00 | 0.00 | 0.00 | 18 | 1005.7 |
| 20260506141301 | 35 | 180 | 1.6 | 24.1 | 0.00 | 0.00 | 0.00 | 19 | 1005.9 |
| 20260506140759 | 33 | 180 | 1.6 | 30.6 | 0.00 | 0.00 | 0.00 | 18 | 1005.8 |
| 20260506140256 | 35 | 180 | 0.0 | 4.8 | 0.00 | 0.00 | 0.00 | 18 | 1005.9 |
| 20260506135754 | 35 | 180 | 1.6 | 27.4 | 0.00 | 0.00 | 0.00 | 17 | 1005.9 |
| 20260506135251 | 37 | 225 | 1.6 | 25.7 | 0.00 | 0.00 | 0.00 | 17 | 1006.0 |
| 20260506134749 | 37 | 180 | 0.0 | 30.6 | 0.00 | 0.00 | 0.00 | 18 | 1005.9 |
| 20260506133242 | 37 | 90 | 1.6 | 24.1 | 0.00 | 0.00 | 0.00 | 18 | 1006.0 |
| 20260506132237 | 38 | 225 | 0.0 | 22.5 | 0.00 | 0.00 | 0.00 | 18 | 1006.2 |
| 20260506131734 | 42 | 315 | 0.0 | 9.7 | 0.00 | 0.00 | 0.00 | 18 | 1006.3 |
| 20260506130730 | 40 | 180 | 1.6 | 16.1 | 0.00 | 0.00 | 0.00 | 19 | 1006.2 |
| 20260506130227 | 36 | 45 | 0.0 | 25.7 | 0.00 | 0.00 | 0.00 | 20 | 1006.3 |
| 20260506125725 | 37 | 270 | 14.5 | 19.3 | 0.00 | 0.00 | 0.00 | 20 | 1006.4 |
| 20260506125222 | 39 | 225 | 0.0 | 22.5 | 0.00 | 0.00 | 0.00 | 20 | 1006.5 |
| 20260506124218 | 35 | 315 | 0.0 | 27.4 | 0.00 | 0.00 | 0.00 | 21 | 1006.5 |
| 20260506123715 | 35 | 315 | 0.0 | 8.0 | 0.00 | 0.00 | 0.00 | 21 | 1006.6 |
| 20260506123213 | 35 | 225 | 25.7 | 27.4 | 0.00 | 0.00 | 0.00 | 20 | 1006.6 |
| 20260506122710 | 36 | 315 | 0.0 | 19.3 | 0.00 | 0.00 | 0.00 | 20 | 1006.7 |
| 20260506122208 | 38 | 1.6 | 45.1 | 0.00 | 0.00 | 0.00 | 20 | 1006.8 | |
| 20260506121203 | 37 | 45 | 1.6 | 22.5 | 0.00 | 0.00 | 0.00 | 21 | 1006.8 |
| 20260506120701 | 36 | 315 | 0.0 | 11.3 | 0.00 | 0.00 | 0.00 | 21 | 1006.8 |
| 20260506120158 | 36 | 315 | 1.6 | 27.4 | 0.00 | 0.00 | 0.00 | 22 | 1006.9 |
| 20260506115656 | 37 | 45 | 1.6 | 12.9 | 0.00 | 0.00 | 0.00 | 21 | 1007.1 |
| 20260506115153 | 38 | 45 | 1.6 | 22.5 | 0.00 | 0.00 | 0.00 | 21 | 1007.2 |
| 20260506114651 | 38 | 225 | 0.0 | 1.6 | 0.00 | 0.00 | 0.00 | 22 | 1007.2 |
| 20260506114149 | 38 | 45 | 1.6 | 24.1 | 0.00 | 0.00 | 0.00 | 23 | 1007.3 |
| 20260506113646 | 37 | 315 | 0.0 | 3.2 | 0.00 | 0.00 | 0.00 | 24 | 1007.4 |
| 20260506113144 | 35 | 225 | 1.6 | 29.0 | 0.00 | 0.00 | 0.00 | 22 | 1007.4 |
| 20260506112641 | 36 | 180 | 0.0 | 27.4 | 0.00 | 0.00 | 0.00 | 24 | 1007.6 |
| 20260506112139 | 35 | 270 | 1.6 | 22.5 | 0.00 | 0.00 | 0.00 | 24 | 1007.6 |
| 20260506111637 | 37 | 315 | 1.6 | 11.3 | 0.00 | 0.00 | 0.00 | 23 | 1007.7 |
| 20260506111134 | 36 | 180 | 0.0 | 29.0 | 0.00 | 0.00 | 0.00 | 24 | 1007.7 |
| 20260506110632 | 36 | 225 | 1.6 | 27.4 | 0.00 | 0.00 | 0.00 | 24 | 1007.8 |
| 20260506110129 | 36 | 45 | 0.0 | 24.1 | 0.00 | 0.00 | 0.00 | 25 | 1008.0 |
| 20260506105125 | 35 | 225 | 0.0 | 29.0 | 0.00 | 0.00 | 0.00 | 26 | 1008.1 |
| 20260506104622 | 36 | 225 | 0.0 | 25.7 | 0.00 | 0.00 | 0.00 | 26 | 1008.2 |
| 20260506104120 | 35 | 315 | 0.0 | 25.7 | 0.00 | 0.00 | 0.00 | 26 | 1008.2 |
| 20260506103617 | 35 | 45 | 0.0 | 6.4 | 0.00 | 0.00 | 0.00 | 26 | 1008.3 |
| 20260506103115 | 35 | 45 | 0.0 | 25.7 | 0.00 | 0.00 | 0.00 | 26 | 1008.5 |
| 20260506102612 | 36 | 180 | 1.6 | 27.4 | 0.00 | 0.00 | 0.00 | 26 | 1008.5 |
| 20260506100603 | 35 | 0 | 0.0 | 19.3 | 0.00 | 0.00 | 0.00 | 28 | 1008.9 |
| 20260506100100 | 33 | 225 | 0.0 | 27.4 | 0.00 | 0.00 | 0.00 | 29 | 1008.9 |
| 20260506095558 | 31 | 0 | 0.0 | 20.9 | 0.00 | 0.00 | 0.00 | 30 | 1008.8 |
| 20260506095056 | 33 | 45 | 0.0 | 9.7 | 0.00 | 0.00 | 0.00 | 29 | 1008.9 |
| 20260506094051 | 33 | 45 | 0.0 | 3.2 | 0.00 | 0.00 | 0.00 | 30 | 1009.1 |
| 20260506093548 | 31 | 225 | 0.0 | 12.9 | 0.00 | 0.00 | 0.00 | 30 | 1009.1 |
| 20260506093046 | 34 | 270 | 0.0 | 6.4 | 0.00 | 0.00 | 0.00 | 29 | 1009.2 |
| 20260506092041 | 34 | 225 | 0.0 | 3.2 | 0.00 | 0.00 | 0.00 | 32 | 1009.4 |
| 20260506091539 | 34 | 180 | 0.0 | 1.6 | 0.00 | 0.00 | 0.00 | 32 | 1009.4 |
| 20260506091036 | 33 | 225 | 1.6 | 11.3 | 0.00 | 0.00 | 0.00 | 32 | 1009.5 |
| 20260506090534 | 33 | 225 | 0.0 | 1.6 | 0.00 | 0.00 | 0.00 | 34 | 1009.6 |
| 20260506090031 | 33 | 135 | 0.0 | 19.3 | 0.00 | 0.00 | 0.00 | 34 | 1009.6 |
| 20260506085529 | 33 | 180 | 1.6 | 20.9 | 0.00 | 0.00 | 0.00 | 35 | 1009.8 |
| 20260506085027 | 32 | 270 | 0.0 | 29.0 | 0.00 | 0.00 | 0.00 | 37 | 1009.7 |
| 20260506084525 | 30 | 180 | 0.0 | 29.0 | 0.00 | 0.00 | 0.00 | 38 | 1009.6 |
| 20260506084022 | 28 | 1.6 | 8.0 | 0.00 | 0.00 | 0.00 | 38 | 1009.7 | |
| 20260506083519 | 27 | 135 | 3.2 | 27.4 | 0.00 | 0.00 | 0.00 | 38 | 1009.6 |
| 20260506083017 | 27 | 0.0 | 35.4 | 0.00 | 0.00 | 0.00 | 38 | 1009.6 | |
| 20260506082515 | 27 | 135 | 1.6 | 16.1 | 0.00 | 0.00 | 0.00 | 39 | 1009.6 |
| 20260506082012 | 28 | 45 | 3.2 | 33.8 | 0.00 | 0.00 | 0.00 | 40 | 1009.8 |
| 20260506081510 | 27 | 45 | 0.0 | 27.4 | 0.00 | 0.00 | 0.00 | 41 | 1009.8 |
| 20260506081007 | 28 | 315 | 0.0 | 35.4 | 0.00 | 0.00 | 0.00 | 41 | 1009.9 |
| 20260506080505 | 27 | 135 | 0.0 | 37.0 | 0.00 | 0.00 | 0.00 | 41 | 1009.9 |
| 20260506072948 | 23 | 1.6 | 22.5 | 0.00 | 0.00 | 0.00 | 44 | 1010.3 | |
| 20260506072445 | 23 | 45 | 0.0 | 24.1 | 0.00 | 0.00 | 0.00 | 44 | 1010.3 |
| 20260506071943 | 23 | 45 | 0.0 | 17.7 | 0.00 | 0.00 | 0.00 | 45 | 1010.4 |
| 20260506071441 | 23 | 45 | 0.0 | 6.4 | 0.00 | 0.00 | 0.00 | 45 | 1010.4 |
| 20260506070938 | 23 | 45 | 0.0 | 35.4 | 0.00 | 0.00 | 0.00 | 45 | 1010.4 |
| 20260506070436 | 23 | 0 | 0.0 | 37.0 | 0.00 | 0.00 | 0.00 | 45 | 1010.5 |